User: anonymous   Login
Location: Tyler Bend Campground
(35.9875°N, 92.7606°W)
Time: 02:01:11
(UTC-06:00)
Language:

CZ-2C R/B - Orbit

View from above orbital plane
View from above orbital plane
View from above satellite
View from above satellite

Ground track
Ground track

The orbit data is extracted from the following two-line orbital elements,

1 36089U 09061B   17017.50521066  .00000072  00000-0  29107-4 0  9995
2 36089  98.0501  26.0157 0082763 149.0422   2.2536 14.49633882379881
Epoch (UTC): 17 January 2017 12:07:30
Eccentricity: 0.0082763
inclination: 98.0501°
perigee height: 668 km
apogee height: 785 km
right ascension of ascending node: 26.0157°
argument of perigee: 149.0422°
revolutions per day: 14.49633882
mean anomaly at epoch: 2.2536°
orbit number at epoch: 37988

The dashed part of the orbit path shows where the satellite is in the earth's shadow,  

DLR